Tracking 22879 objects as of 21-Apr-2021
HD Live streaming from Space Station
objects crossing your sky now

STARLINK-2078

Track STARLINK-2078 now!
10-day predictions
STARLINK-2078 is classified as:


NORAD ID: 47675
Int'l Code: 2021-012BH
Perigee: 424.3 km
Apogee: 425.9 km
Inclination: 53.0 °
Period: 92.9 minutes
Semi major axis: 6796 km
RCS: Unknown
Launch date: February 16, 2021
Source: United States (US)
Launch site: AIR FORCE EASTERN TEST RANGE (AFETR)
aabbcc
Your satellite tracking list
Your tracking list is empty




NASA's NSSDC Master Catalog

Two Line Element Set (TLE):
1 47675U 21012BH  21110.58335648 -.00454488  00000-0 -85640-2 0  9992
2 47675  53.0476 147.9137 0001138  74.6229 234.5340 15.49582655  1766
Source of the keplerian elements: AFSPC